,

(GMT )
Ekofisk

Weather History for ENEK - December, 2012

Change the Weather History Date:

Thursday, December 6, 2012

  Actual Average Record
Temperature  
Mean Temperature 38 °F -  
Max Temperature 42 °F 46 °F 51 °F (2007)
Min Temperature 33 °F 42 °F 33 °F (2012)
Degree Days  
Heating Degree Days 28    
Moisture  
Dew Point 29 °F    
Average Humidity 65    
Maximum Humidity 87    
Minimum Humidity 44    
Precipitation  
Precipitation 0.00 in - - ()
Sea Level Pressure  
Sea Level Pressure 29.67 in    
Wind  
Wind Speed 22 mph ()    
Max Wind Speed 47 mph    
Max Gust Speed -    
Visibility 6.2 miles    
Events Rain , Snow    
Averages and records for this station are not official NWS values.
T = Trace of Precipitation, MM = Missing Value Source: Averaged Metar Reports

Daily Weather History Graph

Daily Weather History Graph

Search for Another Location

Airport or City:

Trip Planner

Search our weather history database for the weather conditions in past years. The results will help you decide how hot, cold, wet, or windy it might be!

Date:

Astronomy

Dec. 06, 2012 Rise Set
Actual Time 9:05 AM CET 4:10 PM CET
Civil Twilight 8:18 AM CET 4:58 PM CET
Nautical Twilight 7:28 AM CET 5:47 PM CET
Astronomical Twilight 6:43 AM CET 6:33 PM CET
Moon No Moon Rise 12:45 PM CET (12/6)
Length of Visible Light 8h 39m
Length of Day
7h 05m
Waning Gibbous, 52% of the Moon is Illuminated
Dec 6
Waning Gibbous
Dec 6
Last Quarter
Dec 13
New
Dec 20
First Quarter
Dec 28
Full

Hourly Weather History & Observations

Time (CET) Temp. Windchill Dew Point Humidity Pressure Visibility Wind Dir Wind Speed Gust Speed Precip Events Conditions
12:20 AM 33.8 °F 21.0 °F 19.4 °F 56% 29.77 in 6.2 mi North 25.3 mph - N/A   Partly Cloudy
12:50 AM 35.6 °F 24.2 °F 21.2 °F 56% 29.77 in 6.2 mi North 21.9 mph - N/A   Partly Cloudy
1:00 AM 36 °F - 22 °F 44% 29.80 in 31 mi North 15.7 mph - -   Partly Cloudy
1:20 AM 35.6 °F 24.8 °F 23.0 °F 60% 29.77 in 6.2 mi North 19.6 mph - N/A   Partly Cloudy
1:50 AM 35.6 °F 24.8 °F 23.0 °F 60% 29.77 in 6.2 mi North 19.6 mph - N/A   Partly Cloudy
2:20 AM 35.6 °F 25.2 °F 23.0 °F 60% 29.77 in 6.2 mi North 18.4 mph - N/A   Partly Cloudy
2:50 AM 35.6 °F 25.2 °F 23.0 °F 60% 29.80 in 6.2 mi North 18.4 mph - N/A   Partly Cloudy
3:20 AM 35.6 °F 26.2 °F 23.0 °F 60% 29.80 in 6.2 mi North 15.0 mph - N/A   Partly Cloudy
3:50 AM 37.4 °F 29.8 °F 23.0 °F 56% 29.80 in 6.2 mi NNW 11.5 mph - N/A   Partly Cloudy
4:20 AM 37.4 °F 29.3 °F 21.2 °F 52% 29.80 in 6.2 mi NNW 12.7 mph - N/A   Partly Cloudy
4:50 AM 37.4 °F 30.3 °F 23.0 °F 56% 29.80 in 6.2 mi NNW 10.4 mph - N/A   Partly Cloudy
5:20 AM 37.4 °F 31.4 °F 23.0 °F 56% 29.80 in 6.2 mi NNW 8.1 mph - N/A   Partly Cloudy
5:50 AM 37.4 °F 34.9 °F 24.8 °F 60% 29.80 in 6.2 mi WNW 3.5 mph - N/A   Scattered Clouds
6:20 AM 39.2 °F 33.0 °F 26.6 °F 61% 29.80 in 6.2 mi West 9.2 mph - N/A   Scattered Clouds
6:50 AM 39.2 °F 32.5 °F 30.2 °F 70% 29.80 in 6.2 mi WSW 10.4 mph - N/A   Scattered Clouds
7:00 AM 39 °F - 31 °F 63% 29.81 in 31 mi West 11.2 mph - -   Partly Cloudy
7:20 AM 39.2 °F 30.2 °F 30.2 °F 70% 29.80 in 6.2 mi West 17.3 mph - N/A   Scattered Clouds
7:50 AM 35.6 °F 22.7 °F 32.0 °F 87% 29.80 in 6.2 mi WNW 28.8 mph - N/A Rain , Snow Light Snow Showers
8:20 AM 37.4 °F 26.4 °F 33.8 °F 87% 29.77 in 6.2 mi WNW 23.0 mph - N/A   Scattered Clouds
8:50 AM 39.2 °F 29.8 °F 30.2 °F 70% 29.77 in 6.2 mi WNW 18.4 mph - N/A   Scattered Clouds
9:20 AM 39.2 °F 29.6 °F 32.0 °F 75% 29.77 in 6.2 mi West 19.6 mph - N/A   Scattered Clouds
9:50 AM 39.2 °F 29.8 °F 32.0 °F 75% 29.77 in 6.2 mi West 18.4 mph - N/A   Partly Cloudy
10:20 AM 41.0 °F 32.5 °F 32.0 °F 70% 29.77 in 6.2 mi WSW 17.3 mph - N/A   Partly Cloudy
10:50 AM 41.0 °F 31.9 °F 26.6 °F 57% 29.77 in 6.2 mi WSW 19.6 mph - N/A   Scattered Clouds
11:20 AM 41.0 °F 30.9 °F 26.6 °F 57% 29.74 in 6.2 mi WSW 24.2 mph - N/A   Partly Cloudy
11:50 AM 41.0 °F 30.2 °F 26.6 °F 57% 29.74 in 6.2 mi SW 27.6 mph - N/A   Partly Cloudy
12:20 PM 41.0 °F 30.0 °F 23.0 °F 49% 29.71 in 6.2 mi SW 28.8 mph - N/A   Partly Cloudy
12:50 PM 41.0 °F 30.0 °F 24.8 °F 53% 29.71 in 6.2 mi SW 28.8 mph - N/A   Partly Cloudy
1:20 PM 41.0 °F 29.5 °F 26.6 °F 57% 29.68 in 6.2 mi SW 32.2 mph - N/A   Partly Cloudy
1:50 PM 41.0 °F 29.1 °F 24.8 °F 53% 29.68 in 6.2 mi SW 34.5 mph - N/A   Mostly Cloudy
2:20 PM 41.0 °F 28.6 °F 24.8 °F 53% 29.65 in 6.2 mi SSW 38.0 mph - N/A   Mostly Cloudy
2:50 PM 41.0 °F 28.5 °F 26.6 °F 57% 29.65 in 6.2 mi SSW 39.1 mph - N/A   Mostly Cloudy
3:20 PM 41.0 °F 28.5 °F 26.6 °F 57% 29.62 in 6.2 mi SSW 39.1 mph - N/A   Mostly Cloudy
3:50 PM 41.0 °F 28.2 °F 28.4 °F 61% 29.59 in 6.2 mi SSW 41.4 mph - N/A   Mostly Cloudy
4:20 PM 41.0 °F 28.3 °F 28.4 °F 61% 29.59 in 6.2 mi SSW 40.3 mph - N/A   Mostly Cloudy
4:50 PM 42.8 °F 30.7 °F 30.2 °F 61% 29.56 in 6.2 mi SSW 41.4 mph - N/A   Mostly Cloudy
5:20 PM 42.8 °F 30.8 °F 30.2 °F 61% 29.53 in 6.2 mi SSW 40.3 mph - N/A   Mostly Cloudy
6:20 PM 42.8 °F 30.7 °F 32.0 °F 66% 29.50 in 6.2 mi SSW 41.4 mph - N/A   Mostly Cloudy
6:50 PM 41.0 °F 27.9 °F 33.8 °F 76% 29.47 in 6.2 mi SSW 43.7 mph - N/A Rain Light Rain
7:20 PM 41.0 °F 27.9 °F 35.6 °F 81% 29.47 in 6.2 mi SSW 43.7 mph - N/A Rain Light Rain
7:50 PM 41.0 °F 27.9 °F 37.4 °F 87% 29.44 in 6.2 mi South 43.7 mph - N/A Rain Light Rain
8:20 PM 41.0 °F 27.9 °F 37.4 °F 87% 29.44 in 6.2 mi South 43.7 mph - N/A Rain Rain
8:50 PM 41.0 °F 27.6 °F 37.4 °F 87% 29.42 in 6.2 mi South 46.0 mph - N/A Rain Rain
9:20 PM 42.8 °F 30.5 °F 37.4 °F 81% 29.39 in 6.2 mi South 42.6 mph - N/A Rain Rain
10:20 PM 42.8 °F 30.4 °F 37.4 °F 81% 29.39 in 6.2 mi South 43.7 mph - N/A Rain Rain
10:50 PM 42.8 °F 30.1 °F 37.4 °F 81% 29.39 in 6.2 mi South 46.0 mph - N/A Rain Rain
11:20 PM 42.8 °F 30.0 °F 35.6 °F 76% 29.36 in 6.2 mi South 47.2 mph - N/A Rain Rain
11:50 PM 42.8 °F 30.3 °F 37.4 °F 81% 29.36 in 6.2 mi South 44.9 mph - N/A Rain Rain